Weather History for Mount Holly, NJ

Change the Weather History Date:

Thursday, May 8, 2014

  Actual Average (KWRI) Record (KWRI)
Temperature  
Mean Temperature 58 °F -  
Max Temperature 64 °F 69 °F 95 °F (2000)
Min Temperature 53 °F 48 °F 37 °F (1997)
Degree Days  
Heating Degree Days 6    
Growing Degree Days 8 (Base 50)    
Moisture  
Dew Point 53 °F    
Average Humidity 86    
Maximum Humidity 96    
Minimum Humidity 73    
Precipitation  
Precipitation 0.27 in - - ()
Sea Level Pressure  
Sea Level Pressure 30.13 in    
Wind  
Wind Speed 3 mph (ENE)    
Max Wind Speed 9 mph    
Max Gust Speed -    
Visibility 8 miles    
Events Rain , Thunderstorm    
Averages and records for this station are not official NWS values.
T = Trace of Precipitation, MM = Missing Value Source: NWS Daily Summary

Daily Weather History Graph

Daily Weather History Graph

Search for Another Location

Airport:

Trip Planner

Search our weather history database for the weather conditions in past years. The results will help you decide how hot, cold, wet, or windy it might be!

Date:

Astronomy

May. 08, 2014 Rise Set
Actual Time 5:51 AM EDT 8:00 PM EDT
Civil Twilight 5:21 AM EDT 8:30 PM EDT
Nautical Twilight 4:44 AM EDT 9:07 PM EDT
Astronomical Twilight 4:04 AM EDT 9:48 PM EDT
Moon 1:59 PM EDT (5/8) 2:20 AM EDT (5/8)
Length of Visible Light 15h 09m
Length of Day
14h 09m
Waxing Gibbous, 64% of the Moon is Illuminated
May 8
Waxing Gibbous
May 14
Full
May 21
Last Quarter
May 28
New
Jun 5
First Quarter

Hourly Weather History & Observations

Time (EDT) Temp. Dew Point Humidity Pressure Visibility Wind Dir Wind Speed Gust Speed Precip Events Conditions
12:54 AM 54.0 °F 48.0 °F 80% 30.18 in 10.0 mi Calm Calm - N/A   Overcast
1:54 AM 54.0 °F 48.0 °F 80% 30.17 in 10.0 mi Calm Calm - 0.00 in Rain Light Rain
2:54 AM 54.0 °F 50.0 °F 86% 30.17 in 10.0 mi Calm Calm - 0.00 in   Overcast
3:54 AM 53.1 °F 50.0 °F 89% 30.17 in 10.0 mi Calm Calm - 0.02 in   Overcast
4:54 AM 53.1 °F 51.1 °F 93% 30.15 in 9.0 mi ESE 3.5 mph - 0.03 in Rain Light Rain
5:03 AM 53.1 °F 51.1 °F 93% 30.15 in 4.0 mi ESE 3.5 mph - 0.03 in Rain Rain
5:14 AM 53.1 °F 51.1 °F 93% 30.16 in 1.8 mi North 3.5 mph - 0.12 in Rain Heavy Rain
5:22 AM 53.1 °F 51.1 °F 93% 30.16 in 1.8 mi NE 4.6 mph - 0.17 in Rain , Thunderstorm Heavy Thunderstorms and Rain
5:29 AM 53.1 °F 51.1 °F 93% 30.15 in 3.0 mi SE 8.1 mph - 0.18 in Rain , Thunderstorm Light Thunderstorms and Rain
5:46 AM 53.1 °F 51.1 °F 93% 30.16 in 10.0 mi Calm Calm - 0.18 in   Overcast
5:54 AM 53.1 °F 51.1 °F 93% 30.15 in 10.0 mi ESE 4.6 mph - 0.18 in   Overcast
6:54 AM 53.1 °F 52.0 °F 96% 30.17 in 6.0 mi ESE 3.5 mph - 0.03 in   Overcast
7:54 AM 54.0 °F 51.1 °F 90% 30.18 in 10.0 mi ESE 4.6 mph - 0.00 in   Overcast
8:54 AM 54.0 °F 51.1 °F 90% 30.17 in 10.0 mi Variable 3.5 mph - N/A   Overcast
9:12 AM 54.0 °F 51.1 °F 90% 30.17 in 10.0 mi ESE 4.6 mph - N/A   Overcast
9:17 AM 54.0 °F 52.0 °F 93% 30.17 in 10.0 mi ESE 3.5 mph - N/A   Overcast
9:54 AM 55.0 °F 53.1 °F 93% 30.16 in 4.0 mi Calm Calm - 0.00 in   Overcast
10:17 AM 55.0 °F 53.1 °F 93% 30.14 in 2.5 mi ESE 4.6 mph - N/A   Overcast
10:54 AM 55.9 °F 54.0 °F 93% 30.14 in 5.0 mi ESE 3.5 mph - 0.01 in   Overcast
11:36 AM 57.9 °F 54.0 °F 87% 30.12 in 9.0 mi Variable 3.5 mph - N/A   Overcast
11:54 AM 57.9 °F 55.0 °F 90% 30.11 in 10.0 mi Variable 3.5 mph - N/A   Overcast
12:54 PM 59.0 °F 55.0 °F 87% 30.11 in 10.0 mi Calm Calm - N/A   Overcast
1:34 PM 62.1 °F 55.9 °F 80% 30.11 in 10.0 mi Calm Calm - N/A   Overcast
1:54 PM 62.1 °F 55.9 °F 80% 30.10 in 10.0 mi Variable 5.8 mph - N/A   Overcast
2:54 PM 63.0 °F 55.9 °F 78% 30.09 in 10.0 mi North 3.5 mph - N/A   Overcast
3:54 PM 63.0 °F 55.9 °F 78% 30.08 in 10.0 mi North 6.9 mph - N/A   Overcast
4:54 PM 64.0 °F 55.9 °F 75% 30.07 in 9.0 mi NNE 9.2 mph - N/A   Overcast
5:43 PM 64.9 °F 55.9 °F 73% 30.07 in 10.0 mi NNE 8.1 mph - N/A   Scattered Clouds
5:54 PM 64.9 °F 55.9 °F 73% 30.07 in 10.0 mi NNE 5.8 mph - N/A   Mostly Cloudy
6:35 PM 63.0 °F 55.9 °F 78% 30.08 in 10.0 mi NE 3.5 mph - N/A   Scattered Clouds
6:50 PM 62.6 °F 55.4 °F 77% 30.09 in 10.0 mi ENE 5.8 mph - N/A   Mostly Cloudy
6:54 PM 63.0 °F 55.9 °F 78% 30.09 in 10.0 mi East 4.6 mph - N/A   Mostly Cloudy
7:54 PM 61.0 °F 55.9 °F 83% 30.11 in 9.0 mi NE 8.1 mph - N/A   Overcast
8:12 PM 61.0 °F 55.0 °F 81% 30.12 in 8.0 mi ENE 6.9 mph - N/A   Overcast
8:54 PM 59.0 °F 55.0 °F 87% 30.13 in 6.0 mi NE 5.8 mph - N/A   Overcast
9:20 PM 57.9 °F 54.0 °F 87% 30.14 in 6.0 mi ENE 5.8 mph - N/A   Overcast
9:54 PM 57.0 °F 54.0 °F 89% 30.15 in 7.0 mi ENE 6.9 mph - N/A   Overcast
10:54 PM 55.9 °F 53.1 °F 90% 30.16 in 10.0 mi East 9.2 mph - N/A   Overcast
11:54 PM 55.9 °F 53.1 °F 90% 30.15 in 10.0 mi Calm Calm - N/A   Overcast